Location: Quaker Farms
(41.4276°N, 73.1557°W)
Time: 00:41:28
(UTC+00:00)

Altair - Pass Details

Date: 18 June 2021
Orbit: 1501 x 1682 km, 47.2° (Epoch: 23 July)

Event Time Altitude Azimuth Distance (km) Brightness Sun altitude
Rises 17:58:57 0° 228° (SW) 4,660 10.4 67.4°
Reaches altitude 10° 18:01:57 10° 225° (SW) 3,697 10.0 67.1°
Maximum altitude 18:11:13 69° 145° (SE) 1,666 9.0 65.8°
Drops below altitude 10° 18:20:53 10° 65° (ENE) 3,848 9.5 64.4°
Sets 18:24:04 0° 63° (ENE) 4,859 9.9 64.0°
